Location: *
(43.0833°N, 13.0500°E)
Time: 03:42:41
(UTC+00:00)

Cosmos 2082 - Pass Details

Date: 15 November 2019
Orbit: 835 x 854 km, 71.0° (Epoch: 06 December)

Event Time Altitude Azimuth Distance (km) Brightness Sun altitude
Rises 17:23:16 0° 335° (NNW) 3,394 7.1 -18.1°
Reaches altitude 10° 17:25:43 10° 336° (NNW) 2,456 6.3 -18.5°
Maximum altitude 17:31:22 88° 68° (ENE) 842 3.6 -19.5°
Drops below altitude 10° 17:36:59 10° 156° (SSE) 2,442 5.9 -20.5°
Sets 17:39:24 0° 157° (SSE) 3,374 6.7 -21.0°
